Weather History for KCXP - April, 2013

Change the Weather History Date:

Wednesday, April 3, 2013

  Actual Average (KRNO) Record (KRNO)
Temperature  
Mean Temperature 53 °F 48 °F  
Max Temperature 71 °F 61 °F 86 °F (1961)
Min Temperature 35 °F 36 °F 13 °F (1956)
Degree Days  
Heating Degree Days 12 17  
Month to date heating degree days 51  
Since 1 July heating degree days 4287  
Cooling Degree Days 0 0  
Month to date cooling degree days 0  
Year to date cooling degree days 0  
Growing Degree Days 3 (Base 50)    
Moisture  
Dew Point 30 °F    
Average Humidity 47    
Maximum Humidity 75    
Minimum Humidity 14    
Precipitation  
Precipitation 0.00 in 0.02 in 0.55 in (1958)
Month to date precipitation 0.05  
Year to date precipitation 2.86  
Snow  
Snow 0.00 in 0.00 in 3.10 in (1958)
Month to date snowfall 0.1  
Since 1 July snowfall 21.1  
Snow Depth -    
Sea Level Pressure  
Sea Level Pressure 30.14 in    
Wind  
Wind Speed 2 mph (WNW)    
Max Wind Speed 12 mph    
Max Gust Speed 28 mph    
Visibility 10 miles    
Events      
T = Trace of Precipitation, MM = Missing Value Source: NWS Daily Summary

Daily Weather History Graph

Daily Weather History Graph

Search for Another Location

Airport or City:

Trip Planner

Search our weather history database for the weather conditions in past years. The results will help you decide how hot, cold, wet, or windy it might be!

Date:

Astronomy

Apr. 03, 2013 Rise Set
Actual Time 6:39 AM PDT 7:25 PM PDT
Civil Twilight 6:12 AM PDT 7:52 PM PDT
Nautical Twilight 5:40 AM PDT 8:24 PM PDT
Astronomical Twilight 5:07 AM PDT 8:57 PM PDT
Moon 2:22 AM PDT (4/3) 12:45 PM PDT (4/3)
Length of Visible Light 13h 39m
Length of Day
12h 45m
Last Quarter, 43% of the Moon is Illuminated
Apr 3
Last Quarter
Apr 10
New
Apr 18
First Quarter
Apr 25
Full
May 2
Last Quarter

Hourly Weather History & Observations

Time (PDT) Temp. Windchill Dew Point Humidity Pressure Visibility Wind Dir Wind Speed Gust Speed Precip Events Conditions
12:15 AM 44.6 °F - 28.4 °F 53% 30.17 in 10.0 mi Calm Calm - N/A   Clear
12:35 AM 39.2 °F - 26.6 °F 61% 30.17 in 10.0 mi Calm Calm - N/A   Clear
12:55 AM 41.0 °F 39.0 °F 28.4 °F 61% 30.18 in 10.0 mi NW 3.5 mph - N/A   Clear
1:15 AM 41.0 °F - 28.4 °F 61% 30.18 in 10.0 mi Calm Calm - N/A   Clear
1:35 AM 39.2 °F - 28.4 °F 65% 30.18 in 10.0 mi Calm Calm - N/A   Clear
1:55 AM 41.0 °F - 28.4 °F 61% 30.18 in 10.0 mi Calm Calm - N/A   Clear
2:15 AM 39.2 °F - 28.4 °F 65% 30.17 in 10.0 mi Calm Calm - N/A   Clear
2:35 AM 37.4 °F - 26.6 °F 65% 30.18 in 10.0 mi Calm Calm - N/A   Clear
2:55 AM 37.4 °F - 28.4 °F 70% 30.18 in 10.0 mi Calm Calm - N/A   Clear
3:15 AM 37.4 °F - 28.4 °F 70% 30.18 in 10.0 mi Calm Calm - N/A   Clear
3:55 AM 37.4 °F - 28.4 °F 70% 30.18 in 10.0 mi Calm Calm - N/A   Clear
4:15 AM 37.4 °F - 28.4 °F 70% 30.18 in 10.0 mi Calm Calm - N/A   Clear
4:35 AM 37.4 °F 34.9 °F 28.4 °F 70% 30.18 in 10.0 mi NW 3.5 mph - N/A   Clear
4:55 AM 37.4 °F 34.9 °F 28.4 °F 70% 30.17 in 10.0 mi WNW 3.5 mph - N/A   Clear
5:15 AM 35.6 °F - 28.4 °F 75% 30.17 in 10.0 mi Calm Calm - N/A   Clear
5:35 AM 35.6 °F - 28.4 °F 75% 30.18 in 10.0 mi Calm Calm - N/A   Clear
5:55 AM 35.6 °F - 26.6 °F 70% 30.18 in 10.0 mi Calm Calm - N/A   Clear
6:15 AM 37.4 °F - 28.4 °F 70% 30.18 in 10.0 mi Calm Calm - N/A   Clear
6:35 AM 35.6 °F - 28.4 °F 75% 30.19 in 10.0 mi Calm Calm - N/A   Clear
6:55 AM 35.6 °F - 28.4 °F 75% 30.19 in 10.0 mi Calm Calm - N/A   Clear
7:15 AM 35.6 °F - 28.4 °F 75% 30.20 in 10.0 mi Calm Calm - N/A   Clear
7:35 AM 39.2 °F - 30.2 °F 70% 30.20 in 10.0 mi Calm Calm - N/A   Clear
7:55 AM 41.0 °F 38.0 °F 30.2 °F 65% 30.22 in 10.0 mi West 4.6 mph - N/A   Clear
8:15 AM 42.8 °F 41.1 °F 30.2 °F 61% 30.21 in 10.0 mi WNW 3.5 mph - N/A   Clear
8:35 AM 44.6 °F 43.1 °F 30.2 °F 57% 30.22 in 10.0 mi SSW 3.5 mph - N/A   Clear
8:55 AM 44.6 °F 43.1 °F 30.2 °F 57% 30.21 in 10.0 mi South 3.5 mph - N/A   Clear
9:15 AM 46.4 °F 45.2 °F 30.2 °F 53% 30.21 in 10.0 mi SW 3.5 mph - N/A   Clear
9:35 AM 46.4 °F 45.2 °F 32.0 °F 57% 30.21 in 10.0 mi SW 3.5 mph - N/A   Clear
9:55 AM 48.2 °F - 32.0 °F 54% 30.20 in 10.0 mi SW 4.6 mph - N/A   Clear
10:15 AM 50.0 °F - 32.0 °F 50% 30.20 in 10.0 mi SSW 4.6 mph - N/A   Clear
10:35 AM 51.8 °F - 32.0 °F 47% 30.20 in 10.0 mi Calm Calm - N/A   Clear
10:55 AM 53.6 °F - 32.0 °F 44% 30.20 in 10.0 mi SW 3.5 mph - N/A   Clear
11:15 AM 55.4 °F - 32.0 °F 41% 30.20 in 10.0 mi Calm Calm - N/A   Clear
11:35 AM 59.0 °F - 32.0 °F 36% 30.20 in 10.0 mi Calm Calm - N/A   Clear
11:55 AM 59.0 °F - 32.0 °F 36% 30.19 in 10.0 mi Calm Calm - N/A   Clear
12:15 PM 60.8 °F - 32.0 °F 34% 30.18 in 10.0 mi Calm Calm - N/A   Clear
12:35 PM 62.6 °F - 32.0 °F 32% 30.17 in 10.0 mi ENE 6.9 mph - N/A   Clear
12:55 PM 64.4 °F - 32.0 °F 30% 30.16 in 10.0 mi East 6.9 mph - N/A   Clear
1:15 PM 66.2 °F - 28.4 °F 24% 30.15 in 10.0 mi Calm Calm - N/A   Clear
1:35 PM 66.2 °F - 26.6 °F 23% 30.14 in 10.0 mi Calm Calm - N/A   Clear
1:55 PM 66.2 °F - 28.4 °F 24% 30.13 in 10.0 mi ENE 9.2 mph - N/A   Clear
2:15 PM 68.0 °F - 26.6 °F 21% 30.13 in 10.0 mi East 4.6 mph - N/A   Clear
2:35 PM 68.0 °F - 24.8 °F 20% 30.11 in 10.0 mi East 3.5 mph - N/A   Clear
2:55 PM 68.0 °F - 24.8 °F 20% 30.11 in 10.0 mi NW 4.6 mph - N/A   Clear
3:15 PM 69.8 °F - 23.0 °F 17% 30.10 in 10.0 mi Calm Calm - N/A   Clear
3:35 PM 71.6 °F - 19.4 °F 14% 30.09 in 10.0 mi NNW 5.8 mph - N/A   Clear
3:55 PM 69.8 °F - 19.4 °F 15% 30.09 in 10.0 mi West 4.6 mph - N/A   Clear
4:15 PM 71.6 °F - 23.0 °F 16% 30.07 in 10.0 mi West 8.1 mph - N/A   Clear
4:35 PM 71.6 °F - 23.0 °F 16% 30.07 in 10.0 mi West 10.4 mph 17.3 mph N/A   Clear
4:55 PM 71.6 °F - 26.6 °F 19% 30.06 in 10.0 mi SW 11.5 mph 27.6 mph N/A   Clear
5:15 PM 68.0 °F - 28.4 °F 23% 30.06 in 10.0 mi West 9.2 mph - N/A   Clear
5:35 PM 68.0 °F - 30.2 °F 24% 30.06 in 10.0 mi West 9.2 mph - N/A   Clear
5:55 PM 68.0 °F - 33.8 °F 28% 30.06 in 10.0 mi West 11.5 mph 19.6 mph N/A   Clear
6:15 PM 68.0 °F - 35.6 °F 30% 30.06 in 10.0 mi West 9.2 mph 16.1 mph N/A   Clear
6:35 PM 66.2 °F - 35.6 °F 32% 30.06 in 10.0 mi West 6.9 mph - N/A   Clear
6:55 PM 64.4 °F - 35.6 °F 34% 30.07 in 10.0 mi WNW 8.1 mph - N/A   Clear
7:15 PM 64.4 °F - 35.6 °F 34% 30.07 in 10.0 mi NNW 8.1 mph - N/A   Clear
7:35 PM 62.6 °F - 37.4 °F 39% 30.07 in 10.0 mi NNW 8.1 mph 17.3 mph N/A   Clear
7:55 PM 60.8 °F - 35.6 °F 39% 30.07 in 10.0 mi West 3.5 mph - N/A   Clear
8:15 PM 60.8 °F - 35.6 °F 39% 30.08 in 10.0 mi West 4.6 mph - N/A   Clear
8:35 PM 60.8 °F - 35.6 °F 39% 30.08 in 10.0 mi West 5.8 mph - N/A   Clear
8:55 PM 59.0 °F - 35.6 °F 42% 30.08 in 10.0 mi NE 3.5 mph - N/A   Clear
9:15 PM 55.4 °F - 35.6 °F 47% 30.09 in 10.0 mi ESE 3.5 mph - N/A   Clear
9:35 PM 53.6 °F - 33.8 °F 47% 30.09 in 10.0 mi East 4.6 mph - N/A   Clear
9:55 PM 53.6 °F - 33.8 °F 47% 30.10 in 10.0 mi East 4.6 mph - N/A   Clear
10:15 PM 53.6 °F - 33.8 °F 47% 30.09 in 10.0 mi ENE 3.5 mph - N/A   Clear
10:35 PM 50.0 °F - 33.8 °F 54% 30.09 in 10.0 mi NNW 3.5 mph - N/A   Clear
10:55 PM 50.0 °F - 32.0 °F 50% 30.09 in 10.0 mi Calm Calm - N/A   Clear
11:15 PM 50.0 °F - 32.0 °F 50% 30.09 in 10.0 mi NW 3.5 mph - N/A   Clear
11:35 PM 50.0 °F - 32.0 °F 50% 30.09 in 10.0 mi Calm Calm - N/A   Clear
11:55 PM 48.2 °F - 32.0 °F 54% 30.08 in 10.0 mi Calm Calm - N/A   Clear